Train No Train Name From To Distance Stops avg_speed (km/hr)
11123 Barauni - Gwalior Mail Barauni Junction Gwalior 1056 47 40
A Train's "Departure" Station, "Arrival" Station and "Distance" may vary. Although we have verified some of this data from enquiry.indianrail.gov.in
Train No Start Date (yyyy-mm-dd) Status Delay Time Source
11123 2017-01-01 Late 31 hours 05 minutes Source
11123 2017-01-02 Late 19 hours 28 minutes Source
11123 2017-01-04 Late 02 hours 00 minutes Source
11123 2017-01-06 Late 10 hours 20 minutes Source
11123 2017-01-07 Late 08 hours 15 minutes Source
11123 2017-01-08 Late 07 hours 20 minutes Source
11123 2017-01-09 Late 08 hours 20 minutes Source
11123 2017-01-10 Late 19 hours 18 minutes Source
11123 2017-01-12 Late 10 hours 20 minutes Source
11123 2017-01-13 Late 09 hours 24 minutes Source
11123 2017-01-14 Late 12 hours 25 minutes Source
11123 2017-01-15 Late 30 hours 56 minutes Source
11123 2017-01-16 Late 08 hours 10 minutes Source
11123 2017-01-18 Late 08 hours 15 minutes Source
11123 2017-01-19 Late 13 hours 27 minutes Source
11123 2017-01-20 Late 08 hours 10 minutes Source
11123 2017-01-21 Late 03 hours 18 minutes Source
11123 2017-01-22 Late 15 hours 55 minutes Source
11123 2017-01-23 Late 04 hours 15 minutes Source
11123 2017-01-24 Late 03 hours 20 minutes Source
11123 2017-01-26 Late 04 hours 45 minutes Source
11123 2017-01-27 Late 05 hours 07 minutes Source
11123 2017-01-28 Late 24 hours 05 minutes Source
11123 2017-01-30 Late 10 hours 10 minutes Source
11123 2017-01-31 Late 28 hours 13 minutes Source
11123 2017-02-01 Late 09 hours 50 minutes Source
11123 2017-02-02 Late 11 hours 35 minutes Source
11123 2017-02-03 Late 24 hours 51 minutes Source
11123 2017-02-05 Late 12 hours 02 minutes Source
11123 2017-02-06 Late 21 hours 40 minutes Source
11123 2017-02-07 Late 10 hours 20 minutes Source
11123 2017-02-08 Late 07 hours 41 minutes Source
11123 2017-02-09 Late 22 hours 10 minutes Source
11123 2017-02-10 Late 06 hours 10 minutes Source
11123 2017-02-13 Late 09 hours 16 minutes Source
11123 2017-02-17 Late 03 hours 25 minutes Source
11123 2017-02-18 Late 15 hours 37 minutes Source
11123 2017-02-19 Late 06 hours 07 minutes Source
11123 2017-02-21 Late 33 hours 55 minutes Source
11123 2017-02-22 Late 54 hours 10 minutes Source
11123 2017-02-23 Late 02 hours 05 minutes Source
11123 2017-02-24 Late 04 hours 57 minutes Source
11123 2017-02-25 Late 02 hours 40 minutes Source
11123 2017-02-26 Late 05 hours 00 minutes Source
11123 2017-02-27 Late 07 hours 02 minutes Source
11123 2017-02-28 Late 28 hours 21 minutes Source
11123 2017-03-01 Late 06 hours 45 minutes Source
11123 2017-03-02 Late 08 hours 07 minutes Source
11123 2017-03-03 Late 07 hours 05 minutes Source
11123 2017-03-06 Late 08 hours 10 minutes Source
Page 1 of 2, showing 50 records out of 71 total